Home   Weather   Bludenz   Past weeks

Flag for Austria Past Weather in Bludenz, Vorarlberg, Austria — Yesterday and Last 2 Weeks

Now
68 °F

Mild.


Feels Like: 68 °F
Forecast: 49 / 73 °F
Wind: 2 mph from North

Location: Feldkirch

Current Time: Sep 25, 2016 at 5:56:39 PM

Latest Report: Sep 25, 2016 at 5:00 PM


Visibility: N/A

Pressure: 30.06 "Hg (28.15 "Hg at 563m altitude)

Humidity: 58%

Dew Point: 53 °F

Location of BludenzLocation

Past Weather in Bludenz — Graph

°F

Bludenz Temperature Yesterday

Maximum temperature yesterday: 69 °F (at 4:00 PM)
Minimum temperature yesterday: 48 °F (at 7:00 AM)
Average temperature yesterday: 60 °F

High & Low Weather Summary for the Past Weeks

 TemperatureHumidityPressure
High82 °F (Sep 12, 3:00 PM)100% (Sep 20, 3:00 AM)30.33 "Hg (Sep 20, 3:00 AM)
Low47 °F (Sep 25, 7:00 AM)41% (Sep 15, 7:00 AM)29.77 "Hg (Sep 15, 7:00 AM)
Average62 °F78%30.03 "Hg
* Reported Sep 10 4:00 PM — Sep 25 4:00 PM, Bludenz, Weather by CustomWeather, © 2016

Note: Actual official high and low records may vary slightly from our data, if they occured in-between our weather recording intervals... More about our weather records

Advertising

Bludenz Weather History for the Previous 24 Hours

Scroll right to see more
 ConditionsComfort  
Time TempWeatherWind HumidityBarometerVisibility
4:00 PM
Sun, Sep 25
69 °FMild.2 mph59%30.06 "HgN/A
3:00 PM69 °FMild.2 mph64%30.06 "HgN/A
2:00 PM68 °FMild.2 mph67%30.08 "HgN/A
1:00 PM69 °FMild.2 mph66%30.09 "HgN/A
12:00 PM68 °FMild.1 mph61%30.11 "HgN/A
11:00 AM64 °FMild.No wind61%30.14 "HgN/A
10:00 AM61 °FCool.No wind69%30.16 "HgN/A
9:00 AM56 °FCool.No wind83%30.19 "HgN/A
8:00 AM48 °FCool.1 mph95%30.22 "HgN/A
7:00 AM47 °FPassing clouds.1 mph95%30.21 "Hg12 mi
6:00 AM49 °FCool.1 mph94%30.19 "HgN/A
5:00 AM50 °FCool.No wind92%30.19 "HgN/A
4:00 AM53 °FCool.1 mph88%30.18 "HgN/A
3:00 AM54 °FCool.1 mph85%30.19 "HgN/A
2:00 AM56 °FCool.1 mph80%30.19 "HgN/A
1:00 AM57 °FCool.1 mph79%30.18 "HgN/A
12:00 AM59 °FCool.1 mph77%30.18 "HgN/A
11:00 PM
Sat, Sep 24
58 °FCool.1 mph80%30.19 "HgN/A
10:00 PM60 °FCool.1 mph79%30.18 "HgN/A
9:00 PM61 °FCool.1 mph77%30.18 "HgN/A
8:00 PM60 °FCool.1 mph87%30.18 "HgN/A
7:00 PM64 °FMild.No wind77%30.16 "HgN/A
6:00 PM67 °FMild.1 mph71%30.16 "HgN/A
5:00 PM68 °FMild.2 mph69%30.16 "HgN/A
Weather by CustomWeather, © 2016

See weather overviewHow to use our weather pages